Wind_Speed
22 23 22 21 21 21 20 19 20 20 20 20 19 18 18 16 16 15 14 13 13 13 13 13 13 12 12 12 12 12 12 12 12 12 11 11 11 11 11 11 10 10 9 8
23 23 22 23 22 22 21 20 20 20 20 20 20 20 19 18 17 16 16 15 14 14 14 14 14 14 12 12 12 12 12 12 13 12 12 12 12 12 13 12 11 11 10 9
24 24 24 24 23 23 22 22 21 22 21 21 21 21 20 19 18 18 17 16 15 15 15 15 15 14 13 13 13 13 12 13 13 13 13 13 13 13 13 13 13 12 11 11
26 26 25 25 24 24 23 23 23 23 22 22 21 21 21 20 18 18 17 17 16 15 16 16 16 15 14 13 13 13 13 14 14 14 14 14 14 14 14 14 14 13 13 13
26 26 26 25 25 25 25 24 24 23 23 23 23 22 21 21 19 18 17 17 16 16 16 16 16 16 15 15 14 14 14 14 15 15 15 15 15 15 15 15 14 14 14 14
26 26 26 26 26 26 25 24 24 23 23 24 23 22 21 21 20 19 18 17 17 17 17 17 17 17 17 16 16 15 15 15 15 15 15 16 16 16 16 15 15 14 14 14
26 26 26 26 26 26 25 24 23 22 23 23 22 22 21 21 20 19 19 18 18 18 18 18 19 19 18 18 18 17 17 17 16 16 16 16 17 17 16 16 15 15 14 14
26 26 26 26 26 26 25 25 24 22 20 20 22 22 21 20 19 19 19 19 19 19 19 19 19 19 19 18 19 19 19 18 18 17 17 17 17 16 16 16 15 15 14 13
26 26 26 26 26 26 26 26 24 23 22 20 21 22 21 20 19 19 19 19 19 19 19 19 20 19 19 19 19 19 19 19 19 18 17 17 16 16 16 16 15 15 15 14
27 26 26 26 27 27 27 26 26 25 23 22 21 21 20 20 19 19 19 19 19 19 19 19 20 20 20 19 19 19 19 19 18 19 18 17 16 17 17 17 16 16 15 15
27 26 26 27 27 27 27 27 27 26 25 22 20 19 21 20 19 19 19 19 19 19 19 19 19 19 19 19 19 19 19 19 18 19 19 17 17 17 17 17 17 16 15 15
26 26 26 27 27 27 27 27 27 27 26 25 21 20 22 21 20 20 20 20 19 20 20 19 18 18 18 18 18 18 18 19 19 19 18 18 18 18 18 17 17 16 14 14
26 26 26 25 27 28 28 27 28 27 26 26 23 20 22 21 21 21 21 21 20 20 21 20 19 18 18 18 19 19 18 19 19 19 19 19 19 19 19 18 16 15 14 14
25 25 25 24 24 26 28 28 28 28 27 26 25 22 23 23 22 22 22 22 21 21 21 21 21 20 19 19 19 20 20 20 20 20 20 20 20 19 19 18 16 15 14 14
24 24 25 25 25 26 27 27 27 28 28 26 25 24 23 23 23 23 23 23 22 22 21 21 21 21 20 20 20 20 21 21 21 20 20 19 19 19 19 18 17 16 15 15
24 24 24 25 25 26 26 26 27 27 27 26 25 25 24 24 24 23 23 23 23 22 22 21 21 20 20 20 20 21 21 21 21 20 20 20 19 18 18 18 17 17 16 16
24 23 23 23 24 25 26 26 26 26 26 26 25 25 24 24 24 24 24 24 23 23 22 22 21 21 21 21 21 21 21 21 21 21 21 20 19 19 18 18 18 17 17 17
23 23 23 23 24 24 25 25 25 25 25 25 26 25 24 23 23 24 24 24 23 23 23 23 22 22 22 22 22 21 21 21 21 21 20 20 19 19 19 19 19 18 17 17
24 23 23 23 23 25 25 24 24 25 25 25 25 25 24 24 23 24 24 24 23 23 23 23 22 22 22 22 22 21 21 21 20 20 20 20 20 20 19 19 18 18 17 17
24 24 25 25 23 24 24 24 25 25 26 25 25 25 24 24 24 24 25 25 23 22 22 23 23 23 23 23 23 22 22 21 20 20 20 20 20 19 19 18 18 18 17 17
23 24 25 25 25 24 24 24 24 25 25 25 25 25 25 24 24 25 25 25 24 22 22 22 22 23 23 23 23 22 22 21 20 20 20 20 19 18 19 18 18 18 18 18
23 23 24 25 25 25 24 24 24 24 24 24 24 24 25 24 24 24 24 24 24 24 23 23 24 24 24 23 23 22 21 21 20 19 19 19 19 19 19 19 19 19 19 19
23 23 23 24 24 24 24 25 25 25 25 24 24 24 25 25 24 24 24 24 24 24 24 24 24 25 24 23 23 22 22 22 21 20 19 19 18 19 19 19 19 19 19 19
23 24 24 24 24 24 24 24 25 25 25 25 24 24 24 24 23 24 24 24 24 25 25 25 25 24 24 24 23 22 22 21 21 21 20 19 19 19 19 19 18 18 19 19
22 22 23 23 23 23 24 24 24 24 24 25 24 23 23 24 24 23 23 24 24 24 24 25 25 25 24 24 23 23 23 22 22 22 21 21 20 20 20 20 19 19 19 20
20 21 22 22 22 22 22 23 23 23 23 24 24 23 23 23 23 23 23 23 24 24 24 24 24 24 23 23 23 23 22 22 23 22 21 21 21 20 20 20 20 20 20 20
Wind_Direction
238 238 237 238 239 239 240 243 246 248 251 251 252 252 253 256 258 259 260 261 267 266 265 269 272 276 282 286 289 293 297 299 301 300 299 301 305 307 305 306 308 307 302 302
238 238 238 238 238 239 241 243 244 246 248 248 250 252 254 256 258 257 256 259 263 268 270 269 271 274 278 281 283 289 292 296 297 296 294 295 298 302 305 304 304 301 297 295
239 239 239 239 240 241 242 242 244 246 247 249 251 253 255 256 257 257 256 259 263 266 270 272 272 271 275 278 279 282 284 290 293 292 292 292 293 297 303 307 305 297 293 289
239 240 239 240 241 242 243 243 245 247 247 249 250 253 254 255 255 255 257 259 259 261 266 269 268 269 271 274 275 276 281 289 291 291 292 290 291 295 299 303 302 294 292 290
241 240 239 240 241 241 242 243 245 248 248 249 251 249 252 254 253 252 253 256 257 259 264 265 265 264 266 268 269 272 280 286 289 289 291 288 289 292 296 299 301 297 293 291
242 241 240 240 241 241 242 243 245 248 248 248 249 249 249 251 251 250 251 254 255 257 260 263 264 265 266 266 267 271 277 283 286 287 288 287 288 290 293 296 299 297 295 291
241 241 240 240 240 241 241 240 242 243 245 249 249 248 248 248 249 249 250 252 253 254 257 260 264 266 266 265 267 271 276 279 282 283 284 285 286 288 289 293 297 296 295 291
241 240 240 239 240 242 242 240 237 238 244 249 251 249 249 249 247 247 248 250 251 253 256 258 262 265 265 265 268 271 273 276 280 282 281 283 283 285 289 292 294 292 292 290
239 241 240 239 239 239 241 240 240 242 244 244 249 252 250 249 248 247 247 247 249 254 257 260 262 263 264 265 267 270 273 276 279 280 281 282 280 283 286 288 290 288 286 288
237 239 239 238 238 237 237 238 237 237 241 244 249 253 250 249 250 250 247 247 249 252 255 259 262 261 262 265 266 269 274 276 277 280 281 280 279 280 285 285 284 283 284 282
236 237 238 238 237 237 236 235 237 238 240 242 247 252 252 248 248 248 248 249 249 250 254 257 260 260 261 264 266 269 274 276 277 279 281 278 276 279 281 282 283 283 282 280
236 236 236 238 238 237 238 238 238 238 240 241 242 249 252 249 247 246 247 248 250 250 252 256 259 260 260 264 267 269 272 275 277 280 278 274 274 276 279 280 281 282 279 277
235 235 235 236 237 237 237 237 238 239 242 244 245 249 251 249 246 244 244 247 250 251 252 256 258 259 261 262 265 268 271 274 278 279 275 273 272 275 277 278 278 276 272 270
235 235 233 233 238 240 239 239 238 237 239 244 245 247 252 248 246 245 245 247 249 250 253 256 257 257 259 261 263 266 271 274 277 279 276 271 271 275 274 275 274 272 270 270
233 234 234 232 232 236 239 239 239 239 239 243 246 247 248 248 246 245 245 246 247 249 252 255 257 257 258 260 262 266 271 273 274 276 277 272 272 274 273 271 271 272 272 272
231 233 233 235 234 235 237 237 239 240 241 243 245 247 247 248 246 244 244 246 246 248 250 253 255 254 256 259 262 266 271 272 273 275 274 272 273 275 272 270 268 269 270 271
231 232 232 235 236 236 237 236 238 240 240 241 243 245 246 246 245 244 245 246 246 247 249 250 252 254 256 259 262 266 270 271 271 270 270 270 271 272 271 271 268 268 269 269
230 231 232 234 235 236 238 237 237 239 240 241 242 245 245 243 243 245 246 247 247 246 249 249 251 255 258 259 262 266 269 270 270 267 267 267 269 271 272 271 266 267 268 268
231 231 231 233 238 239 238 238 237 238 239 240 241 243 244 244 243 244 244 245 245 246 249 249 252 255 257 259 262 264 266 267 269 267 264 265 265 267 268 268 264 266 268 268
231 232 233 235 238 243 242 240 240 241 242 240 241 242 241 241 242 242 243 243 244 247 248 250 252 254 256 258 259 261 263 265 268 268 263 261 262 263 265 264 263 265 266 267
232 232 234 235 238 242 242 240 240 241 244 242 243 243 240 240 240 242 244 243 243 246 249 250 251 254 257 258 258 260 262 263 266 266 263 259 260 261 261 261 262 266 267 266
235 234 233 235 238 242 241 239 237 240 244 244 244 244 242 240 241 243 245 246 247 248 250 250 252 254 256 257 257 257 259 262 264 265 263 259 260 260 259 260 263 265 264 265
234 235 236 237 240 243 242 241 239 240 242 243 244 245 243 241 240 243 245 246 247 247 249 249 251 254 255 257 256 256 259 261 261 262 261 258 260 262 260 260 262 262 263 265
234 236 239 241 242 242 242 243 242 241 242 243 245 245 244 242 241 242 244 246 247 247 249 248 249 251 253 255 253 254 256 258 260 260 259 258 258 259 259 259 261 262 264 266
235 235 240 242 243 243 243 244 243 243 242 242 243 244 243 243 244 244 245 246 246 246 246 247 247 249 252 250 250 252 255 258 259 261 260 258 257 255 257 260 261 265 267 268
237 236 237 240 242 241 240 242 243 242 241 242 242 243 242 243 245 246 247 247 247 246 246 247 249 249 250 250 249 252 256 258 260 263 261 258 256 255 257 260 261 264 267 269
Height
5861 5864 5866 5869 5871 5874 5875 5877 5879 5880 5880 5882 5883 5884 5885 5886 5887 5887 5888 5888 5888 5888 5888 5888 5888 5887 5887 5886 5885 5884 5883 5882 5881 5879 5878 5877 5875 5874 5872 5870 5868 5867 5865 5864
5857 5859 5862 5863 5865 5868 5870 5872 5874 5875 5876 5877 5878 5880 5881 5882 5883 5884 5885 5885 5885 5885 5885 5885 5885 5885 5884 5884 5883 5882 5881 5880 5879 5877 5876 5875 5873 5872 5870 5868 5867 5865 5864 5863
5851 5855 5855 5858 5860 5863 5865 5867 5869 5870 5871 5873 5875 5876 5876 5878 5879 5880 5880 5881 5882 5882 5882 5882 5882 5881 5881 5881 5880 5879 5878 5877 5876 5875 5874 5872 5871 5869 5868 5866 5865 5863 5862 5861
5845 5847 5850 5852 5855 5857 5860 5862 5863 5865 5867 5868 5871 5872 5873 5873 5874 5875 5876 5877 5878 5878 5878 5878 5878 5878 5878 5878 5877 5876 5875 5874 5873 5872 5871 5869 5868 5867 5865 5863 5862 5860 5859 5858
5839 5841 5844 5846 5849 5851 5854 5855 5857 5859 5861 5863 5865 5867 5869 5869 5870 5871 5872 5873 5873 5874 5874 5874 5875 5875 5875 5874 5874 5873 5872 5872 5870 5869 5868 5866 5865 5864 5862 5861 5859 5857 5856 5855
5832 5835 5837 5840 5843 5845 5847 5850 5852 5853 5856 5858 5860 5862 5864 5864 5865 5867 5868 5868 5869 5870 5870 5871 5871 5871 5871 5871 5870 5870 5869 5868 5867 5866 5865 5863 5862 5860 5859 5858 5856 5854 5853 5852
5826 5828 5831 5834 5836 5838 5841 5845 5847 5849 5851 5853 5855 5855 5859 5859 5860 5862 5863 5864 5864 5865 5866 5866 5866 5867 5867 5867 5866 5866 5865 5865 5864 5863 5862 5860 5858 5857 5856 5854 5853 5851 5849 5848
5820 5823 5825 5827 5830 5833 5835 5839 5843 5846 5848 5850 5848 5850 5853 5854 5855 5856 5858 5859 5859 5860 5861 5862 5862 5862 5862 5862 5862 5862 5861 5861 5860 5859 5858 5856 5855 5854 5852 5851 5849 5848 5846 5845
5814 5817 5819 5821 5824 5827 5829 5832 5836 5839 5841 5844 5844 5845 5847 5848 5850 5851 5853 5854 5854 5855 5856 5857 5857 5857 5857 5857 5857 5857 5857 5856 5855 5855 5853 5852 5851 5850 5849 5848 5846 5845 5844 5843
5807 5810 5812 5814 5817 5820 5823 5826 5829 5832 5834 5837 5840 5840 5842 5843 5844 5846 5847 5848 5850 5851 5851 5852 5852 5852 5852 5853 5853 5852 5852 5851 5851 5850 5849 5848 5847 5846 5845 5844 5843 5842 5841 5840
5800 5804 5806 5808 5810 5813 5817 5820 5822 5826 5829 5832 5835 5839 5836 5837 5839 5841 5842 5843 5844 5846 5846 5847 5847 5848 5848 5848 5848 5848 5847 5846 5846 5845 5844 5843 5843 5842 5841 5840 5839 5838 5837 5836
5793 5797 5800 5802 5805 5807 5810 5813 5816 5820 5822 5824 5829 5834 5829 5832 5833 5835 5836 5838 5839 5840 5841 5842 5842 5843 5843 5843 5843 5843 5842 5842 5841 5840 5839 5838 5838 5837 5837 5836 5835 5834 5833 5833
5786 5790 5793 5796 5800 5801 5803 5806 5809 5813 5816 5818 5822 5827 5823 5825 5827 5829 5830 5832 5833 5835 5836 5837 5837 5838 5838 5838 5838 5838 5838 5837 5836 5836 5834 5834 5833 5833 5833 5832 5831 5830 5830 5829
5780 5783 5788 5792 5793 5795 5797 5800 5803 5806 5809 5812 5815 5819 5818 5819 5821 5823 5824 5826 5828 5829 5830 5831 5832 5833 5833 5833 5833 5833 5833 5833 5832 5831 5830 5829 5829 5828 5828 5828 5828 5827 5826 5826
5773 5776 5780 5783 5786 5788 5791 5793 5796 5799 5802 5806 5808 5810 5811 5813 5814 5816 5818 5820 5822 5823 5824 5825 5826 5827 5828 5828 5828 5828 5828 5827 5827 5826 5825 5824 5824 5824 5824 5824 5823 5823 5823 5822
5766 5770 5773 5776 5779 5781 5784 5787 5790 5792 5795 5798 5801 5803 5804 5806 5808 5810 5811 5813 5815 5817 5818 5820 5821 5822 5822 5823 5823 5823 5822 5822 5821 5821 5820 5820 5820 5820 5819 5819 5819 5819 5819 5818
5760 5764 5768 5770 5772 5775 5778 5781 5783 5785 5788 5791 5794 5796 5797 5799 5801 5803 5805 5807 5809 5811 5812 5813 5815 5815 5816 5817 5817 5817 5817 5816 5816 5815 5815 5815 5816 5815 5815 5815 5815 5814 5814 5814
5754 5758 5761 5764 5767 5769 5774 5773 5776 5779 5781 5784 5786 5789 5790 5793 5795 5796 5798 5800 5802 5804 5806 5807 5808 5809 5810 5811 5811 5811 5811 5810 5810 5810 5810 5811 5811 5810 5810 5810 5810 5810 5809 5809
5748 5752 5755 5758 5760 5763 5765 5767 5770 5772 5775 5777 5779 5782 5784 5786 5788 5790 5791 5794 5796 5798 5799 5801 5802 5803 5804 5805 5805 5805 5805 5805 5805 5805 5805 5805 5805 5805 5805 5805 5805 5805 5805 5804
5742 5745 5749 5751 5754 5757 5760 5761 5763 5767 5768 5770 5772 5775 5777 5779 5782 5784 5785 5787 5790 5791 5793 5794 5795 5797 5798 5798 5799 5799 5799 5799 5799 5799 5799 5799 5799 5799 5799 5800 5800 5800 5800 5800
5736 5739 5742 5745 5747 5749 5752 5754 5757 5761 5762 5764 5765 5768 5770 5772 5775 5777 5779 5781 5783 5785 5786 5787 5789 5790 5791 5792 5793 5793 5793 5793 5793 5793 5793 5793 5794 5794 5794 5794 5795 5795 5795 5795
5730 5733 5736 5739 5741 5745 5745 5748 5751 5753 5754 5756 5758 5761 5763 5765 5768 5770 5772 5774 5776 5778 5780 5781 5782 5784 5785 5786 5786 5787 5788 5788 5788 5788 5788 5788 5788 5788 5788 5789 5789 5789 5789 5789
5724 5728 5730 5733 5736 5737 5738 5741 5743 5746 5748 5750 5752 5754 5756 5759 5761 5764 5766 5768 5770 5771 5773 5774 5776 5777 5778 5779 5780 5781 5782 5782 5782 5782 5783 5783 5783 5783 5783 5783 5783 5783 5784 5784
5718 5721 5724 5726 5729 5731 5732 5734 5736 5739 5741 5743 5745 5748 5750 5752 5755 5757 5759 5761 5763 5764 5766 5767 5769 5770 5772 5773 5774 5775 5775 5776 5776 5777 5777 5777 5777 5777 5777 5777 5778 5778 5778 5778
5712 5715 5718 5720 5723 5724 5726 5728 5730 5732 5734 5736 5739 5741 5743 5746 5748 5750 5752 5754 5756 5758 5759 5760 5762 5763 5765 5766 5767 5768 5769 5769 5770 5770 5771 5771 5771 5771 5771 5771 5772 5772 5772 5772
5706 5709 5711 5714 5716 5718 5720 5721 5723 5725 5728 5730 5732 5735 5737 5740 5742 5744 5746 5748 5749 5751 5752 5754 5755 5756 5758 5759 5760 5761 5762 5763 5764 5764 5764 5764 5765 5765 5765 5765 5765 5765 5766 5766